#timestamp,LO_Frequency,Hit,StdDev 
1560380415.7,286047004.8,P
1560380435.5,286047004.5,P
1560380455.3,286047005.0,Y
1560380475.2,286047000.3,P
1560380495.9,286047001.0,N
1560380515.7,286047001.6,N
1560380535.6,286047001.4,N
1560380555.4,286047004.0,Y
1560380575.2,286046999.9,P
1560380595.1,286047002.0,N
1560380596.0,286047002.0,N
1560380615.8,286047002.5,N
1560380635.6,286047002.4,N
1560380655.5,286047001.4,N
1560380675.3,286047001.6,N
1560380695.1,286047004.3,Y
1560380715.9,286046999.7,P
1560380735.7,286047002.7,N
1560380755.5,286047004.3,P
1560380775.3,286047004.3,N
1560380795.2,286047004.3,N
1560380815.0,286047003.0,N
1560380815.9,286047003.0,N
1560380835.7,286047004.2,N
1560380855.6,286047004.3,N
1560380875.4,286047001.7,N
1560380895.2,286047001.4,N
1560380915.1,286047004.1,N
1560380916.0,286047004.1,N
1560380935.8,286047001.3,N
1560380955.6,286047003.9,N
1560380975.5,286047006.0,Y
1560380995.3,286047002.4,P
1560381015.1,286047000.2,N
1560381035.9,286047002.1,N
1560381055.7,286047000.1,N
1560381075.5,286047000.5,N
1560381095.3,286047001.2,N
1560381115.2,286046998.5,N
1560381135.0,286046999.3,N
1560381135.9,286046999.3,N
1560381155.7,286046998.4,N
1560381175.6,286046998.6,N
1560381195.4,286046999.1,N
1560381215.2,286046999.3,N
1560381235.1,286046998.6,N
1560381236.0,286046998.6,N
1560381255.8,286046998.6,N
1560381275.6,286046998.2,N
1560381295.5,286046998.9,N
1560381315.3,286047002.4,N
1560381335.1,286047001.4,N
1560381355.8,286047003.9,N
1560381375.7,286047002.9,N
1560381395.5,286047005.7,Y
1560381415.3,286047005.6,P
1560381435.2,286047004.3,N
1560381455.0,286047002.0,N
1560381455.9,286047002.0,N
1560381475.7,286047002.2,N
1560381495.6,286047000.0,N
1560381515.4,286047000.0,N
1560381535.2,286047001.8,N
1560381555.1,286047002.7,N
1560381556.0,286047002.7,N
1560381575.8,286047000.0,N
1560381595.6,286047002.8,N
1560381615.5,286047002.4,N
1560381635.3,286047002.4,N
1560381655.1,286047002.7,N
1560381675.9,286047005.0,Y
1560381695.7,286047003.6,P
1560381715.5,286047001.5,N
1560381735.3,286047002.7,P
1560381755.2,286047000.1,N
1560381775.0,286047000.7,N
1560381775.9,286047000.7,N
1560381795.7,286047001.0,N
1560381815.6,286047001.2,N
1560381835.4,286046999.7,N
1560381855.2,286047001.6,N
1560381875.1,286047002.7,N
1560381876.0,286047002.7,N
1560381895.8,286047002.3,N
1560381915.6,286047002.1,N
1560381935.5,286047001.9,N
1560381955.3,286047002.6,N
1560381975.1,286047002.2,N
1560381995.9,286047003.9,Y
1560382015.7,286047001.8,P
1560382035.5,286047001.5,P
1560382055.3,286047002.2,P
1560382075.2,286047000.9,Y
1560382095.0,286046996.6,P
1560382095.9,286046996.6,N
1560382115.7,286046996.6,N
1560382135.6,286046996.9,N
1560382155.4,286046996.5,N
1560382175.2,286046997.2,N
1560382195.1,286046997.1,N
1560382196.0,286046997.1,N
1560382215.8,286046996.8,N
1560382235.6,286046997.2,N
1560382255.5,286046996.6,N
1560382275.3,286046997.0,N
1560382295.1,286046996.9,N
1560382315.9,286046994.9,Y
1560382335.7,286046998.5,P
1560382355.5,286047001.1,N
1560382375.4,286047000.8,N
1560382395.2,286047000.0,N
1560382415.0,286047000.5,N
1560382415.9,286047000.5,N
1560382435.7,286047000.5,N
1560382455.6,286046998.8,N
1560382475.4,286046999.6,N
1560382495.2,286046999.5,N
1560382515.1,286047000.5,N
1560382516.0,286047000.5,N
1560382535.8,286047000.4,N
1560382555.6,286046999.8,N
1560382575.5,286047000.3,N
1560382595.3,286047001.0,N
1560382615.1,286046998.3,N
1560382635.9,286046998.3,N
1560382655.7,286046999.4,N
1560382675.5,286046999.5,N
1560382695.3,286046997.4,N
1560382715.2,286046997.5,N
1560382735.0,286046995.6,Y
1560382735.9,286046995.6,P
1560382755.7,286046997.3,N
1560382775.6,286046997.8,N
1560382795.4,286046997.7,N
1560382815.2,286046997.2,N
1560382835.1,286046997.5,N
1560382836.0,286046997.5,N
1560382855.8,286046995.1,Y
1560382875.6,286046998.4,P
1560382895.5,286047000.9,N
1560382915.3,286047002.4,N
1560382935.1,286047002.1,N
1560382955.9,286047004.3,N
1560382975.7,286047003.8,N
1560382995.5,286047004.4,N
1560383015.4,286047001.7,N
1560383035.2,286047002.7,N
1560383055.0,286047002.1,N
1560383055.9,286047002.1,N
1560383075.7,286047003.9,N
1560383095.6,286047003.6,N
1560383115.4,286047003.7,N
1560383135.2,286047003.6,N
1560383155.1,286047002.9,N
1560383156.0,286047002.9,N
1560383175.8,286047003.2,N
1560383195.6,286047003.6,N
1560383215.5,286047003.0,N
1560383235.3,286047003.5,N
1560383255.1,286047003.0,N
1560383275.9,286047006.0,Y
1560383295.7,286047001.3,P
1560383315.5,286047004.3,P
1560383335.4,286047004.4,P
1560383355.2,286047004.2,Y
1560383375.0,286047000.8,P
1560383375.9,286047000.8,N
1560383395.8,286047000.4,N
1560383415.6,286047001.0,N
1560383435.4,286046998.3,N
1560383455.2,286046998.1,N
1560383475.1,286047000.1,N
1560383476.0,286047000.1,N
1560383495.8,286047002.5,N
1560383515.6,286047002.4,N
1560383535.5,286046999.9,N
1560383555.3,286047000.2,N
1560383575.1,286047002.6,N
1560383595.9,286047001.7,N
1560383615.7,286047004.3,N
1560383635.5,286047003.5,N
1560383655.4,286047004.1,N
1560383675.2,286047006.0,Y
1560383695.0,286047004.3,P
1560383695.9,286047004.3,N
1560383715.8,286047002.1,N
1560383735.6,286047002.1,N
1560383755.4,286047002.5,N
1560383775.2,286047002.0,N
1560383795.1,286047001.3,N
1560383796.0,286047001.3,N
1560383815.8,286047001.9,N
1560383835.6,286047001.8,N
1560383855.5,286047001.4,N
1560383875.3,286047004.4,Y
1560383895.1,286046999.9,P
1560383915.9,286047002.6,N
1560383935.7,286047002.4,N
1560383955.5,286047000.9,N
1560383975.4,286047000.6,N
1560383995.2,286047002.5,N
